Change the Weather History Date:

Wednesday, October 12, 2011

  Actual Average Record
Temperature  
Mean Temperature 45 °F 42 °F  
Max Temperature 53 °F 57 °F 78 °F (1964)
Min Temperature 36 °F 28 °F 6 °F (2009)
Degree Days  
Heating Degree Days 20 23  
Month to date heating degree days 193 252  
Since 1 July heating degree days 627 873  
Cooling Degree Days 0 0  
Month to date cooling degree days 0 0  
Year to date cooling degree days 48 81  
Moisture  
Dew Point 27 °F    
Average Humidity 54    
Maximum Humidity 76    
Minimum Humidity 32    
Precipitation  
Precipitation 0.00 in 0.03 in 0.40 in (1920)
Month to date precipitation 0.44 0.34  
Year to date precipitation 11.01 11.22  
Sea Level Pressure  
Sea Level Pressure 30.11 in    
Wind  
Wind Speed 6 mph (West)    
Max Wind Speed 17 mph    
Max Gust Speed 29 mph    
Visibility 10 miles    
Events      
T = Trace of Precipitation, MM = Missing Value Source: NWS Daily Summary

Daily Weather History Graph

Daily Weather History Graph

Search for Another Location

Airport or City:

Trip Planner

Search our weather history database for the weather conditions in past years. The results will help you decide how hot, cold, wet, or windy it might be!

Date:

Astronomy

Oct. 12, 2011 Rise Set
Actual Time 7:42 AM MDT 6:49 PM MDT
Civil Twilight 7:12 AM MDT 7:19 PM MDT
Nautical Twilight 6:37 AM MDT 7:54 PM MDT
Astronomical Twilight 6:03 AM MDT 8:28 PM MDT
Moon 6:47 PM MDT (10/12) 8:26 AM MDT (10/12)
Length of Visible Light 12h 07m
Length of Day
11h 07m
Full, 100% of the Moon is Illuminated
Oct 12
Full
Oct 19
Last Quarter
Oct 26
New
Nov 2
First Quarter
Nov 10
Full

Hourly Weather History & Observations

Time (MDT) Temp. Windchill Dew Point Humidity Pressure Visibility Wind Dir Wind Speed Gust Speed Precip Events Conditions
12:53 AM 39.2 °F 37.0 °F 28.4 °F 65% 30.07 in 10.0 mi Variable 3.5 mph - N/A   Overcast
1:53 AM 39.0 °F 34.8 °F 28.9 °F 67% 30.07 in 10.0 mi WSW 5.8 mph - N/A   Mostly Cloudy
2:53 AM 39.0 °F 36.8 °F 27.0 °F 62% 30.09 in 10.0 mi Variable 3.5 mph - N/A   Clear
3:53 AM 41.0 °F 35.8 °F 28.0 °F 60% 30.07 in 10.0 mi West 8.1 mph - N/A   Mostly Cloudy
4:53 AM 39.9 °F 36.7 °F 28.9 °F 65% 30.11 in 10.0 mi West 4.6 mph - N/A   Mostly Cloudy
5:53 AM 41.0 °F 37.1 °F 28.0 °F 60% 30.12 in 10.0 mi WNW 5.8 mph - N/A   Overcast
6:53 AM 39.0 °F 35.7 °F 30.0 °F 70% 30.14 in 10.0 mi WNW 4.6 mph - N/A   Overcast
7:53 AM 39.2 °F 35.9 °F 28.4 °F 65% 30.13 in 10.0 mi WSW 4.6 mph - N/A   Clear
8:53 AM 42.1 °F 39.2 °F 28.0 °F 58% 30.15 in 10.0 mi Variable 4.6 mph - N/A   Clear
9:53 AM 42.1 °F - 30.0 °F 62% 30.18 in 10.0 mi Calm Calm - N/A   Scattered Clouds
10:53 AM 46.0 °F 40.6 °F 24.1 °F 42% 30.16 in 10.0 mi West 11.5 mph 18.4 mph N/A   Partly Cloudy
11:53 AM 46.9 °F - 23.0 °F 39% 30.14 in 10.0 mi West 8.1 mph 20.7 mph N/A   Clear
12:53 PM 48.0 °F - 25.0 °F 41% 30.14 in 10.0 mi West 10.4 mph 19.6 mph N/A   Overcast
1:53 PM 50.0 °F - 25.0 °F 38% 30.11 in 10.0 mi WSW 11.5 mph 23.0 mph N/A   Clear
2:53 PM 51.8 °F - 24.8 °F 35% 30.12 in 10.0 mi WSW 15.0 mph 21.9 mph N/A   Clear
3:53 PM 53.1 °F - 25.0 °F 34% 30.07 in 10.0 mi WSW 15.0 mph 19.6 mph N/A   Clear
4:53 PM 53.1 °F - 25.0 °F 34% 30.07 in 10.0 mi West 9.2 mph - N/A   Clear
5:53 PM 51.1 °F - 26.1 °F 38% 30.07 in 10.0 mi West 6.9 mph - N/A   Clear
6:53 PM 48.9 °F - 26.1 °F 41% 30.09 in 10.0 mi West 5.8 mph - N/A   Clear
7:53 PM 45.0 °F 43.5 °F 27.0 °F 49% 30.10 in 10.0 mi WNW 3.5 mph - N/A   Clear
8:53 PM 41.0 °F - 28.0 °F 60% 30.09 in 10.0 mi Calm Calm - N/A   Clear
9:53 PM 39.0 °F 34.8 °F 28.9 °F 67% 30.13 in 10.0 mi NW 5.8 mph - N/A   Clear
10:53 PM 39.0 °F - 28.9 °F 67% 30.12 in 10.0 mi Calm Calm - N/A   Clear
11:53 PM 37.4 °F 33.8 °F 30.2 °F 75% 30.14 in 10.0 mi North 4.6 mph - N/A   Clear